Location: Le Domaine
(47.0333°N, 76.5361°W)
Time: 19:07:32
(UTC-05:00)

S-56A Canister/Altair - Pass Details

Date: 22 November 2019
Orbit: 633 x 2499 km, 38.9° (Epoch: 06 December)

Event Time Altitude Azimuth Distance (km) Brightness Sun altitude
Rises 14:33:25 0° 212° (SSW) 5,920 14.0 13.6°
Reaches altitude 10° 14:38:23 10° 202° (SSW) 4,691 13.3 13.1°
Maximum altitude 14:47:58 27° 152° (SSE) 2,966 10.9 12.0°
Drops below altitude 10° 14:55:15 10° 100° (E) 3,506 10.6 11.2°
Sets 14:58:20 0° 88° (E) 4,214 10.9 10.8°
